Location: Asheville, NC
(35.6000°N, 82.5500°W)
Time: 06:46:04
(UTC-05:00)

CUTE 1.7 + AOD 2 - Visible Passes

Search period start: 18 January 2018 00:00
Search period end: 28 January 2018 00:00
Orbit: 595 x 613 km, 97.6° (Epoch: 18 January)

Date Brightness Start Highest point End Pass type
(mag) Time Alt. Az. Time Alt. Az. Time Alt. Az.
18 Jan ? 18:26:00 10° SSE 18:30:10 54° ENE 18:34:19 10° N visible
18 Jan ? 20:05:33 10° W 20:06:15 10° W 20:06:57 10° W visible
19 Jan ? 06:16:01 10° ENE 06:17:19 11° E 06:18:37 10° ESE visible
19 Jan ? 18:38:12 10° SSE 18:42:27 77° ENE 18:46:43 10° N visible
20 Jan ? 06:27:08 10° NE 06:29:46 16° E 06:32:21 10° SE visible
20 Jan ? 18:50:31 10° S 18:54:46 75° WSW 18:59:03 10° NNW visible
21 Jan ? 06:38:51 10° NE 06:42:10 22° E 06:45:27 10° SSE visible
21 Jan ? 19:02:58 10° S 19:07:07 51° W 19:11:17 10° NNW visible
22 Jan ? 06:50:48 10° NE 06:54:33 31° E 06:58:16 10° SSE visible
22 Jan ? 19:15:33 10° SSW 19:19:29 36° W 19:23:25 10° NNW visible
23 Jan ? 07:02:54 10° NNE 07:06:55 44° E 07:10:55 10° S visible
23 Jan ? 19:28:18 10° SSW 19:31:51 26° W 19:35:25 10° NW visible
24 Jan ? 19:41:16 10° SW 19:44:15 19° W 19:47:16 10° NW visible
25 Jan ? 18:16:41 10° SE 18:20:42 42° ENE 18:24:43 10° N visible
25 Jan ? 19:54:37 10° WSW 19:56:41 13° W 19:58:44 10° WNW visible
26 Jan ? 18:28:48 10° SSE 18:32:59 60° ENE 18:37:10 10° N visible
27 Jan ? 06:18:19 10° ENE 06:20:11 13° E 06:22:00 10° ESE visible
27 Jan ? 18:41:02 10° SSE 18:45:17 86° E 18:49:33 10° N visible
